Helicity
101 105 130 171 67 82 101 80 69 74 72 33 151 154 243 376 491 472 454 517 526 568 560 527 484 485 331 271 186 229 198 160 200 207 192 192 139 158
65 103 66 167 60 41 52 70 77 51 42 58 53 102 162 283 374 375 437 400 494 593 617 719 653 549 478 439 301 295 301 280 260 295 267 235 194 237
-17 -28 84 127 81 61 65 57 80 81 82 52 49 53 130 172 290 387 385 391 483 549 700 758 780 676 648 608 594 377 423 342 303 274 211 198 204 162
28 41 113 266 109 66 65 61 58 65 68 63 50 56 86 167 259 352 450 455 482 576 684 806 868 772 748 726 570 594 520 378 371 282 221 209 164 179
28 36 40 138 58 77 51 66 98 92 87 73 57 67 78 161 311 357 392 478 578 534 684 890 911 809 841 756 714 718 701 544 354 303 223 225 196 193
83 67 30 101 42 34 41 46 75 96 95 117 106 96 76 218 303 373 471 561 625 668 742 949 952 875 843 758 798 733 597 503 338 283 302 267 238 165
98 89 127 52 -36 -21 33 58 85 95 112 125 127 126 114 294 364 430 420 626 683 755 908 1012 1085 919 844 778 674 630 570 557 344 267 282 222 210 145
93 105 106 59 37 -14 29 64 71 88 91 114 130 65 80 188 297 440 592 654 794 863 1027 1058 956 930 840 740 635 568 552 494 336 254 206 176 147 130
90 94 72 65 50 24 26 60 81 91 101 109 27 63 132 222 388 469 677 684 664 808 970 1255 993 1039 837 703 535 516 480 410 217 190 118 95 128 132
95 85 77 63 62 32 24 50 98 115 113 82 9 89 158 252 360 614 726 748 745 893 1060 1188 943 1022 862 679 496 451 391 346 323 184 105 135 145 130
115 103 67 58 71 28 45 59 105 128 111 96 88 103 142 208 438 500 622 755 734 732 841 893 907 975 793 628 475 364 421 263 189 109 144 138 115 122
85 94 82 82 76 49 41 88 95 96 123 81 86 158 109 162 245 400 622 722 820 687 630 663 742 788 572 476 406 342 298 168 117 133 124 107 116 153
106 104 112 106 81 55 32 73 81 89 124 42 133 132 161 216 229 304 461 690 689 637 610 625 481 509 472 443 393 276 246 198 200 156 130 119 99 150
80 92 116 75 63 43 62 33 39 96 97 113 135 129 139 154 208 305 396 441 428 320 416 469 410 371 366 327 337 337 285 247 211 175 135 121 115 102
68 68 38 33 27 47 26 34 74 126 133 147 154 145 173 224 325 376 402 432 431 351 260 275 303 295 264 284 274 311 316 213 165 121 115 119 95 67
47 51 43 52 62 69 81 82 106 111 129 131 134 139 154 164 206 241 274 274 321 313 333 249 224 277 236 155 185 181 176 146 121 103 101 87 83 86
71 77 84 80 97 117 106 106 107 103 117 116 113 108 108 134 145 152 171 186 212 199 216 233 253 259 211 139 163 144 160 149 92 114 131 128 111 104
56 71 71 81 97 112 114 126 96 86 95 114 106 91 79 88 103 130 137 152 177 160 171 169 187 216 202 210 154 167 176 163 141 138 140 133 135 135
38 86 60 93 116 103 127 111 92 84 93 100 95 82 80 80 84 91 102 120 131 121 110 104 101 119 137 124 105 92 120 136 149 156 134 127 120 122
45 94 78 104 128 94 122 129 114 103 111 112 105 102 96 94 97 96 88 99 95 79 80 89 74 70 71 66 85 84 95 115 113 126 132 142 131 108
50 70 83 118 122 119 162 134 115 112 109 109 103 103 107 112 105 91 91 83 85 76 63 29 37 70 85 104 114 92 94 104 106 126 137 150 142 145
51 87 98 122 133 168 163 131 123 117 110 100 97 96 103 95 91 77 68 68 50 39 26 59 58 79 81 68 74 94 111 126 146 143 114 130 140 144
70 89 123 140 152 180 166 143 121 108 97 89 79 74 75 74 75 80 64 50 59 73 78 87 69 81 91 89 101 114 129 143 154 154 143 164 185 183
Wind_Speed
87 86 83 78 77 77 77 77 81 90 91 82 83 72 75 72 74 71 69 64 66 66 60 61 55 46 42 41 38 35 32 31 28 23 22 19 16 20
77 85 81 76 77 75 78 81 77 85 95 83 85 81 77 79 77 75 78 75 72 69 66 62 58 51 49 43 42 42 40 37 31 25 24 21 21 23
80 76 73 76 78 76 74 77 79 80 92 99 91 87 84 86 83 80 78 77 76 77 72 70 64 57 52 46 45 40 38 33 30 29 27 24 24 25
75 79 80 76 82 74 74 76 76 71 79 94 94 90 89 85 85 82 83 74 76 79 77 74 69 63 57 51 46 38 33 32 33 31 31 28 29 24
71 73 80 81 81 71 66 72 68 68 74 86 101 90 92 82 82 83 82 81 77 73 74 74 70 63 58 52 48 39 36 36 34 34 33 32 28 30
66 70 74 68 74 77 77 74 71 71 73 81 90 94 95 81 74 75 76 73 73 68 69 66 65 62 57 49 46 44 40 38 37 37 34 32 29 36
71 69 66 76 77 80 78 75 72 72 74 80 83 82 80 69 69 64 64 66 59 59 58 61 60 56 55 49 44 43 41 40 40 39 34 32 35 40
76 77 72 74 77 83 76 69 75 76 83 84 87 84 84 61 60 59 59 54 60 54 52 55 57 57 51 49 43 41 39 40 38 38 35 38 41 39
71 70 73 73 70 78 79 72 70 71 72 71 80 73 71 48 46 47 51 52 59 56 49 54 53 55 53 45 42 40 38 34 34 36 40 40 39 35
72 72 66 72 72 69 81 77 70 65 66 64 72 77 47 32 41 45 45 45 38 44 43 54 45 49 45 40 34 31 32 31 31 36 40 40 40 39
81 79 74 74 68 72 72 72 68 63 58 50 57 55 37 22 22 28 34 37 39 47 47 40 41 38 38 36 32 30 30 31 34 35 37 39 40 42
52 65 69 73 71 68 68 64 66 66 49 54 55 43 25 14 12 23 26 32 31 37 40 38 34 37 42 41 38 33 32 30 33 32 36 38 38 37
52 56 62 63 65 62 62 62 63 54 43 49 40 31 23 13 10 12 19 23 27 37 33 29 34 36 36 37 38 31 33 32 29 31 32 32 30 27
53 51 60 63 55 56 53 57 51 40 38 32 28 22 14 9 6 3 8 12 21 22 16 23 26 27 28 26 28 29 26 25 25 32 30 27 25 30
47 42 60 52 52 51 51 47 40 31 29 22 19 15 14 12 5 1 1 8 10 14 20 24 19 19 22 23 23 29 28 31 27 27 28 31 33 37
39 47 42 42 42 42 39 39 32 30 20 14 12 10 11 14 13 2 4 5 4 10 12 12 9 12 16 17 16 18 23 26 24 26 25 28 29 29
28 36 37 41 38 38 38 34 28 24 16 9 4 12 25 22 21 12 12 2 5 4 5 8 5 4 10 9 14 11 13 20 14 16 22 24 29 33
12 23 48 43 39 41 38 29 28 22 17 4 6 10 20 29 27 12 14 21 22 13 11 6 7 5 5 13 11 4 11 12 14 18 26 31 34 36
9 31 51 43 43 48 39 36 33 26 17 6 6 10 15 21 26 25 25 30 28 23 14 6 3 3 4 10 23 22 17 20 21 25 28 32 35 37
12 20 48 41 41 49 42 37 31 25 18 6 2 5 9 15 19 21 22 25 25 21 15 8 8 9 10 8 15 19 22 17 23 26 31 37 42 45
14 16 42 35 36 43 32 34 30 25 15 9 10 3 2 8 12 15 18 21 21 18 16 13 11 14 14 16 18 20 22 27 25 29 35 44 52 54
14 14 33 29 33 22 24 26 25 19 17 14 7 2 3 10 16 20 22 23 20 17 16 13 12 13 18 21 21 22 25 30 33 34 34 41 50 61
13 12 17 27 29 25 21 26 23 21 15 10 2 3 9 16 17 19 22 21 19 15 14 12 13 19 21 23 25 28 32 35 39 44 49 52 57 62
Wind_Direction
300 301 297 299 296 294 293 292 288 287 286 284 281 278 275 273 268 261 257 253 244 243 243 239 239 237 240 241 235 234 240 246 246 250 262 266 277 288
304 296 296 296 297 296 292 290 289 285 285 288 285 282 277 272 268 263 262 259 246 243 239 234 234 234 236 238 238 242 249 250 248 250 260 265 276 292
297 296 297 296 297 297 297 293 290 289 287 286 288 286 279 274 271 265 264 259 255 245 238 234 231 230 231 233 238 242 248 243 250 253 258 262 277 292
304 299 294 302 298 303 298 294 293 297 293 291 290 289 284 278 272 266 261 260 256 248 238 234 230 229 229 231 233 235 236 244 250 253 259 265 278 290
309 305 298 298 299 303 302 297 299 300 297 296 290 292 289 283 274 268 262 257 256 248 238 230 227 225 225 226 227 234 238 247 248 253 260 267 277 289
307 306 306 302 301 300 297 296 300 300 301 300 297 294 292 285 275 266 263 259 253 248 240 230 223 221 219 221 225 233 242 245 249 255 262 268 280 286
309 308 310 299 299 294 294 298 299 301 304 303 302 302 296 282 266 264 260 257 255 243 235 231 223 221 222 224 229 236 240 247 251 255 260 267 280 282
310 310 309 305 298 293 298 301 297 299 301 302 301 302 295 283 268 258 252 250 248 247 227 229 223 226 224 229 234 236 245 248 248 253 258 267 277 281
314 314 312 307 304 294 294 301 301 303 304 303 298 306 297 284 265 252 243 241 248 239 226 232 228 228 234 233 227 240 243 243 244 252 262 268 272 277
309 310 313 310 303 300 290 297 301 305 304 305 302 304 303 284 267 257 248 250 246 237 230 234 230 234 234 234 229 230 235 236 243 257 262 267 273 277
303 300 303 305 308 297 294 296 299 304 310 314 314 313 311 287 260 255 244 236 239 235 243 234 239 232 239 235 237 232 234 242 251 254 261 267 274 279
314 306 300 299 301 297 292 294 299 298 306 308 311 323 327 304 248 249 234 232 228 243 240 247 224 237 248 250 243 243 248 245 248 253 263 270 277 283
318 315 304 298 297 296 291 292 295 297 311 305 318 330 333 332 288 248 238 215 230 254 238 239 232 240 253 252 251 246 242 244 255 261 271 277 278 281
317 318 305 296 300 292 296 288 291 306 308 315 328 348 354 11 19 293 224 239 258 257 214 230 242 232 249 253 248 245 240 249 259 269 274 278 278 280
326 324 294 298 290 290 286 288 291 308 307 325 347 0 359 60 63 84 215 231 261 256 241 245 238 239 245 251 245 244 239 256 264 270 273 275 278 284
337 312 311 296 293 294 286 284 295 286 305 355 8 1 26 58 72 188 202 229 245 258 265 260 245 242 252 257 251 238 250 264 260 270 277 283 288 294
344 318 307 290 296 286 274 273 286 272 284 308 322 55 76 77 75 74 80 80 93 215 242 259 269 261 260 254 262 256 247 274 270 276 285 289 296 301
7 332 278 284 285 267 263 278 262 258 250 282 48 65 78 87 85 68 73 85 91 88 87 71 82 72 340 314 305 282 288 290 291 293 297 299 301 306
25 312 269 278 270 242 255 248 241 240 240 248 77 75 78 81 87 85 85 92 91 88 74 50 24 48 346 308 293 299 297 301 304 305 306 308 308 309
42 332 267 271 262 235 245 242 238 234 237 237 73 62 70 83 86 87 89 95 94 87 76 19 9 345 334 340 324 314 318 325 319 317 315 316 315 316
58 359 265 273 264 245 252 242 236 237 242 247 258 285 27 78 80 83 88 93 93 85 83 66 31 6 14 349 339 333 333 332 334 327 323 318 315 316
56 16 281 279 260 275 255 244 239 243 245 255 267 299 56 89 99 100 100 100 93 86 74 49 32 25 353 345 341 344 339 336 338 337 333 327 321 317
52 41 317 277 265 265 251 240 242 243 248 255 246 104 100 106 101 97 99 96 91 78 71 48 31 355 353 354 350 344 339 335 331 326 324 324 323 320